Regional Weather Roundup
Issued by NWS

Home | Current Version | Previous Version | Graphics & Text | Print | Product List | Glossary On
Versions: 1 2 3 4 5 6 7 8 9 10 11 12 13 14 15 16 17 18 19 20 21 22 23 24 25 26 27 28 29 30 31 32 33 34 35 36 37 38 39 40 41 42 43 44 45 46 47 48 49 50
000
ASUS45 KBOU 191107
RWRCO

WEATHER ROUNDUP FOR COLORADO
NATIONAL WEATHER SERVICE DENVER/BOULDER CO
400 AM MST FRI DEC 19 2014

NOTE: "FAIR" INDICATES FEW OR NO CLOUDS BELOW 12000 FEET WITH NO
SIGNIFICANT WEATHER AND/OR OBSTRUCTIONS TO VISIBILITY.

COZ001>005-013-030-031-191200-
...NORTHWEST COLORADO...

CITY           SKY/WX    TMP DP  RH WIND       PRES   REMARKS
CRAIG          CLOUDY    22  18  85 SW6       30.20R FOG     WCI  14
HAYDEN         CLOUDY    16  12  86 CALM      30.16S
MEEKER         LGT SNOW  20  17  88 NE3       30.19R FOG
MOUNT WERNER   NOT AVBL
STEAMBOAT SPGS CLOUDY    17  15  90 CALM      30.16R
WALDEN         MOCLDY    -2  -8  78 CALM      30.10S
$$

COZ006>008-011-191200-
...WEST CENTRAL VALLEYS...

CITY           SKY/WX    TMP DP  RH WIND       PRES   REMARKS
GRAND JUNCTION CLOUDY    30  28  92 NE6       30.20S WCI  24
MONTROSE       CLOUDY    31  30  96 CALM      30.20S
EAGLE          CLOUDY    21  21 100 CALM      30.20S
RIFLE          CLOUDY    29  25  85 S5        30.19S WCI  24
DELTA          MOCLDY    28  27  94 N3        30.21S
NUCLA          CLOUDY    30  30 100 CALM      30.24S
$$

COZ017>023-064>068-191200-
...SOUTHWEST COLORADO...

CITY           SKY/WX    TMP DP  RH WIND       PRES   REMARKS
DURANGO        CLOUDY    21  19  92 N3        30.16R
CORTEZ         CLEAR     20  17  88 NE7       30.19S WCI  11
PAGOSA SPRINGS PTCLDY    15  14  97 CALM      30.14F
TELLURIDE      NOT AVBL
WOLF CREEK PAS CLEAR      9   5  85 MISG      30.07S
$$

COZ009-010-012-014-032>034-037-058>063-191200-
...CENTRAL COLORADO...

CITY           SKY/WX    TMP DP  RH WIND       PRES   REMARKS
ASPEN          LGT SNOW  23  19  85 CALM      30.13R FOG
BUENA VISTA    PTCLDY    10   4  79 W7        30.10R WCI  -2
COPPER MTN     CLOUDY    12   5  73 W18       30.05S WCI  -5
BERTHOUD PASS  CLOUDY     3   0  85 MISG      30.02R
COTTONWOOD PAS PTCLDY    21  10  63 NW7G18    30.05S WCI  13
GUNNISON       CLOUDY    18   9  68 CALM      30.18S
KREMMLING      FOG       16  12  86 CALM      30.17S VSB 1/2
LEADVILLE      CLOUDY     9   5  84 NE8       30.07S WCI  -3
MONARCH PASS   CLOUDY     9   5  85 MISG      30.12F
SALIDA         PTCLDY    20  13  72 N7        30.17S WCI  11
SUNLIGHT       FLURRIES N/A N/A N/A CALM      30.12S
WILKERSON PASS PTCLDY    12   5  73 W8        30.03F WCI   1
$$

COZ069>075-191200-
...SAN LUIS VALLEY/SANGRE DE CRISTO MOUNTAINS...

CITY           SKY/WX    TMP DP  RH WIND       PRES   REMARKS
ALAMOSA        FOG        8   5  87 CALM      30.12S VSB 1/2
LA VETA PASS   CLOUDY    16  12  86 S8        30.04F WCI   5
SAGUACHE       CLEAR     19  12  73 NW12      30.12R WCI   7
$$

COZ035-036-038>040-191200-
...NORTHERN COLORADO FRONT RANGE...

CITY           SKY/WX    TMP DP  RH WIND       PRES   REMARKS
DENVER INTL AP PTCLDY    24  22  91 SW7       30.05S FOG     WCI  16
DMNS CITY PARK   N/A     23  22  93 S3        30.06R
AURORA         PTCLDY    24  23  93 SW6       30.05S WCI  17
FRONT RANGE AP CLEAR     28  27  93 W7        30.06S FOG     WCI  21
ERIE MUNI ARPT   N/A     18  16  94 CALM      30.06S FOG
BOULDER MUN AP CLEAR     27  19  74 CALM      30.05S
CENTENNIAL     PTCLDY    23  21  92 S5        30.04F WCI  17
BROOMFIELD     CLEAR     27  23  86 CALM      30.05F FOG
FORT COLLINS   CLEAR     21  18  86 N7        30.07S WCI  13
LONGMONT       CLEAR     20  17  88 CALM      30.08S
$$

COZ041-046-047-076>085-087-088-191200-
...PIKES PEAK/PALMER DIVIDE AND SOUTHERN FOOTHILLS...

CITY           SKY/WX    TMP DP  RH WIND       PRES   REMARKS
COLO. SPRINGS  MOCLDY    25  21  85 CALM      30.06F
A. F. ACADEMY  CLEAR     16  14  90 N8        30.05F WCI   6
ELLICOTT       NOT AVBL
FALCON         CLOUDY    27  25  94 CALM      30.06S
FORT CARSON    PTCLDY    21  19  93 NW6       30.05F WCI  14
LIMON          CLEAR     18  15  88 N6        30.07S WCI  10
MONUMENT HILL  CLEAR     21  19  93 SW7       30.03S WCI  13
TRINIDAD       MOCLDY    25  23  92 W6        30.08S WCI  18
$$

COZ042>045-048>051-090-091-191200-
...NORTHEAST COLORADO...

CITY           SKY/WX    TMP DP  RH WIND       PRES   REMARKS
GREELEY ARPT   CLEAR     16   9  73 CALM      30.06S
AKRON          MOCLDY    19  17  92 W8        30.05F WCI   9
BURLINGTON     CLEAR     21  16  81 W8        30.07F WCI  11
WRAY           CLEAR     19  16  86 W3        30.09S
STERLING       PTCLDY    14  14 100 W5        30.07S WCI   6
HOLYOKE        NOT AVBL
FORT MORGAN    FOG       13  12  92 NW10      30.07S VSB 1   WCI   0
$$

COZ086-089-092>099-191200-
...SOUTHEAST COLORADO...

CITY           SKY/WX    TMP DP  RH WIND       PRES   REMARKS
PUEBLO         NOT AVBL
LA JUNTA       CLOUDY    29  27  92 CALM      30.09S
LAMAR          PTCLDY    23  22  96 S6        30.09S FOG     WCI  16
SPRINGFIELD      N/A     28  26  92 W3        30.07F
$$



USA.gov is the U.S. government's official web portal to all federal, state and local government web resources and services.